M0XDC Weather Reports


time (UTC)temp
C
wind
direction
speed
KPH
gust
KPH
rain 1hr
cm
rain 24hr
cm
rain mn
cm
humidity
%
barometer
mb
20260507070218 8 83 3.2 6.4 0.00 0.00 0.00 78 1014.1
20260507064504 8 68 1.6 6.4 0.00 0.00 0.00 79 1014.0
20260507064433 8 62 1.6 6.4 0.00 0.00 0.00 79 1014.0
20260507061505 8 54 1.6 3.2 0.00 0.00 0.00 82 1013.8
20260507061433 8 51 1.6 3.2 0.00 0.00 0.00 82 1013.8
20260507060003 7 62 3.2 6.4 0.00 0.00 0.00 83 1013.8
20260507054505 7 49 3.2 3.2 0.00 0.00 0.00 84 1013.8
20260507054433 7 49 1.6 3.2 0.00 0.00 0.00 84 1013.5
20260507053005 7 67 0.0 3.2 0.00 0.00 0.00 84 1013.5
20260507051505 7 67 1.6 3.2 0.00 0.00 0.00 84 1013.6
20260507051433 7 67 0.0 3.2 0.00 0.00 0.00 84 1013.5
20260507050005 6 67 0.0 3.2 0.00 0.00 0.00 85 1013.5
20260507044433 6 67 0.0 3.2 0.00 0.00 0.00 85 1013.3
20260507043005 6 67 0.0 3.2 0.00 0.00 0.00 85 1013.2
20260507041504 6 52 0.0 3.2 0.00 0.00 0.00 85 1013.0
20260507041433 6 52 0.0 3.2 0.00 0.00 0.00 85 1013.3
20260507040005 7 45 0.0 3.2 0.00 0.00 0.00 84 1013.2
20260507034503 7 59 0.0 3.2 0.00 0.00 0.00 85 1013.2
20260507034433 7 67 0.0 3.2 0.00 0.00 0.00 85 1013.3
20260507033217 7 90 0.0 6.4 0.00 0.00 0.00 85 1013.0
20260507031505 7 60 3.2 9.7 0.00 0.00 0.00 85 1013.2
20260507031433 7 58 3.2 9.7 0.00 0.00 0.00 85 1013.2
20260507030218 7 51 1.6 6.4 0.00 0.00 0.00 86 1013.3
20260507024505 7 45 0.0 3.2 0.00 0.00 0.00 85 1013.0
20260507024433 7 45 0.0 3.2 0.00 0.00 0.00 85 1013.2
20260507023003 7 45 0.0 3.2 0.00 0.00 0.00 85 1013.0
20260507021503 7 45 0.0 3.2 0.00 0.00 0.00 85 1013.0
20260507021433 7 45 0.0 3.2 0.00 0.00 0.00 85 1012.9
20260507020218 7 45 0.0 3.2 0.00 0.00 0.00 85 1013.0
20260507014504 7 0 0.0 0.0 0.00 0.00 0.00 84 1013.0
20260507014433 7 0 0.0 0.0 0.00 0.00 0.00 84 1012.8
20260507013003 7 45 0.0 3.2 0.00 0.00 0.00 84 1012.8
20260507011505 7 79 0.0 3.2 0.00 0.00 0.00 84 1012.8
20260507011433 7 79 0.0 3.2 0.00 0.00 0.00 83 1012.6
20260507010005 7 121 0.0 3.2 0.00 0.00 0.00 83 1012.7
20260507004719 8 70 0.0 3.2 0.00 0.00 0.00 82 1012.8
20260507004433 8 51 0.0 3.2 0.00 0.00 0.00 82 1012.8
20260507003003 8 67 1.6 3.2 0.00 0.00 0.00 81 1012.8
20260507001508 8 59 0.0 3.2 0.00 0.00 0.00 81 1012.7
20260507001433 8 56 0.0 3.2 0.00 0.00 0.00 81 1013.0
20260507000003 8 45 1.6 3.2 0.00 0.00 0.00 81 1012.8
20260506234505 8 67 3.2 3.2 0.00 0.00 0.00 82 1012.9
20260506234433 8 70 1.6 3.2 0.00 0.00 0.00 82 1012.9
20260506233005 8 71 1.6 6.4 0.00 0.00 0.00 82 1012.9
20260506231503 8 72 3.2 6.4 0.00 0.00 0.00 82 1012.6
20260506231433 8 74 0.0 3.2 0.00 0.00 0.00 82 1012.7
20260506230005 8 67 1.6 6.4 0.00 0.00 0.00 82 1012.6
20260506224504 8 68 3.2 6.4 0.00 0.00 0.00 81 1012.6
20260506224433 8 65 1.6 6.4 0.00 0.00 0.00 81 1012.6
20260506223003 8 22 0.0 3.2 0.00 0.00 0.00 81 1012.7
20260506221720 8 13 0.0 3.2 0.00 0.00 0.00 81 1012.8
20260506221433 9 12 0.0 3.2 0.00 0.00 0.00 80 1012.6
20260506220219 9 360 0.0 3.2 0.00 0.00 0.00 79 1012.3
20260506214505 9 360 0.0 3.2 0.00 0.00 0.00 79 1012.5
20260506214433 9 33 0.0 3.2 0.00 0.00 0.00 79 1012.6
20260506213218 9 59 0.0 3.2 0.00 0.00 0.00 80 1012.5
20260506211717 9 18 1.6 6.4 0.00 0.00 0.00 79 1012.5
20260506211433 9 13 0.0 6.4 0.00 0.00 0.00 79 1012.3
20260506210005 9 5 1.6 3.2 0.00 0.00 0.00 78 1012.1
20260506204505 9 287 0.0 6.4 0.00 0.00 0.00 77 1012.3
20260506204433 9 283 0.0 6.4 0.00 0.00 0.00 77 1012.2
20260506203005 9 8 1.6 3.2 0.00 0.00 0.00 76 1012.2
20260506201503 9 281 1.6 6.4 0.00 0.00 0.00 74 1012.1
20260506201433 9 283 0.0 6.4 0.00 0.00 0.00 74 1012.0
20260506200218 10 303 0.0 3.2 0.00 0.00 0.00 72 1011.8
20260506194506 10 18 0.0 3.2 0.00 0.00 0.00 70 1011.6
20260506194433 10 20 0.0 3.2 0.00 0.00 0.00 70 1011.8
20260506193003 10 4 1.6 6.4 0.00 0.00 0.00 69 1011.4
20260506191505 10 4 0.0 3.2 0.00 0.00 0.00 68 1011.7
20260506191433 10 7 0.0 3.2 0.00 0.00 0.00 67 1011.5
20260506190006 11 31 1.6 3.2 0.00 0.00 0.00 70 1011.6
20260506184504 11 45 0.0 3.2 0.00 0.00 0.00 70 1011.3
20260506184433 11 45 0.0 3.2 0.00 0.00 0.00 70 1011.2
20260506181505 11 59 1.6 6.4 0.00 0.00 0.00 68 1011.0
20260506181433 11 59 4.8 6.4 0.00 0.00 0.00 68 1011.1
20260506180005 11 60 1.6 6.4 0.00 0.00 0.00 67 1010.8
20260506174510 11 24 1.6 6.4 0.00 0.00 0.00 63 1010.9
20260506174433 11 25 3.2 6.4 0.00 0.00 0.00 63 1010.6
20260506173003 11 59 1.6 9.7 0.00 0.00 0.00 63 1010.8
20260506171505 11 45 3.2 6.4 0.00 0.00 0.00 63 1010.7
20260506171433 11 40 3.2 6.4 0.00 0.00 0.00 63 1010.7
20260506170005 11 37 3.2 9.7 0.00 0.00 0.00 61 1010.6
20260506164503 11 39 1.6 9.7 0.00 0.00 0.00 62 1010.6
20260506164433 11 40 3.2 9.7 0.00 0.00 0.00 62 1010.7
20260506163218 11 48 3.2 9.7 0.00 0.00 0.00 63 1010.7
20260506161505 11 48 3.2 12.9 0.00 0.00 0.00 63 1010.7
20260506161433 11 46 3.2 12.9 0.00 0.00 0.00 63 1010.7
20260506160003 11 56 3.2 14.5 0.00 0.00 0.00 65 1010.9
20260506154719 11 34 3.2 14.5 0.00 0.00 0.00 66 1010.7
20260506154433 11 32 8.0 14.5 0.00 0.00 0.00 65 1010.7
20260506153218 11 42 3.2 12.9 0.00 0.00 0.00 65 1010.7
20260506151503 11 41 3.2 12.9 0.00 0.00 0.00 63 1010.6
20260506151433 11 46 3.2 12.9 0.00 0.00 0.00 63 1010.6
20260506150003 11 35 6.4 22.5 0.00 0.00 0.00 64 1010.5
20260506144504 12 30 6.4 11.3 0.00 0.00 0.00 62 1010.5
20260506144433 12 27 6.4 11.3 0.00 0.00 0.00 62 1010.6
20260506143005 12 359 3.2 9.7 0.00 0.00 0.00 61 1010.6
20260506141719 11 349 3.2 6.4 0.00 0.00 0.00 62 1010.3
20260506141433 11 343 3.2 9.7 0.00 0.00 0.00 64 1010.5
20260506140005 12 349 3.2 11.3 0.00 0.00 0.00 63 1010.7
20260506134503 13 358 3.2 14.5 0.00 0.00 0.00 58 1010.5
20260506134433 13 342 4.8 14.5 0.00 0.00 0.00 59 1010.5
20260506133220 12 343 3.2 12.9 0.00 0.00 0.00 61 1010.5
20260506131505 12 338 3.2 14.5 0.00 0.00 0.00 62 1010.7
20260506131433 12 349 6.4 14.5 0.00 0.00 0.00 62 1010.7
20260506130219 12 16 3.2 12.9 0.00 0.00 0.00 61 1010.7
20260506124505 11 5 4.8 11.3 0.00 0.00 0.00 65 1010.7
20260506124433 11 8 3.2 11.3 0.00 0.00 0.00 64 1010.4
20260506123005 12 352 3.2 6.4 0.00 0.00 0.00 65 1010.6
20260506121503 12 314 3.2 9.7 0.00 0.00 0.00 63 1010.6
20260506121433 12 311 3.2 9.7 0.00 0.00 0.00 63 1010.7
20260506120219 12 15 4.8 14.5 0.00 0.00 0.00 64 1010.8
20260506114505 11 14 3.2 9.7 0.00 0.00 0.00 68 1010.8
20260506114433 11 14 3.2 9.7 0.00 0.00 0.00 68 1010.8
20260506113217 10 27 6.4 12.9 0.00 0.00 0.00 72 1010.6
20260506111433 11 23 4.8 14.5 0.00 0.00 0.00 68 1010.7
20260506110003 11 2 3.2 11.3 0.00 0.00 0.00 64 1010.5
20260506104505 11 341 3.2 11.3 0.00 0.00 0.00 65 1010.7
20260506104433 11 343 3.2 14.5 0.00 0.00 0.00 65 1010.7
20260506103004 12 21 3.2 14.5 0.00 0.00 0.00 61 1010.6
20260506101503 12 36 4.8 17.7 0.00 0.00 0.00 62 1010.6
20260506101433 12 32 9.7 17.7 0.00 0.00 0.00 60 1010.7
20260506100218 12 27 4.8 12.9 0.00 0.00 0.00 60 1010.6
20260506094503 11 348 6.4 12.9 0.00 0.00 0.00 64 1010.6
20260506094433 11 337 6.4 12.9 0.00 0.00 0.00 64 1010.7
20260506093003 11 18 4.8 12.9 0.00 0.00 0.00 64 1010.9
20260506091719 11 328 4.8 12.9 0.00 0.00 0.00 61 1010.6
20260506091433 11 330 3.2 12.9 0.00 0.00 0.00 64 1010.8
20260506090004 10 358 4.8 12.9 0.00 0.00 0.00 67 1010.8
20260506084717 10 356 3.2 14.5 0.00 0.00 0.00 68 1010.5
20260506084433 10 11 3.2 17.7 0.00 0.00 0.00 69 1010.5
20260506083003 10 345 6.4 12.9 0.00 0.00 0.00 71 1010.5
20260506081718 9 23 4.8 17.7 0.00 0.00 0.00 72 1010.4
20260506081433 9 9 6.4 17.7 0.00 0.00 0.00 73 1010.7
20260506073003 8 336 3.2 14.5 0.00 0.00 0.00 77 1010.4
20260506071503 8 307 3.2 12.9 0.00 0.00 0.00 77 1010.3
20260506071433 8 315 3.2 12.9 0.00 0.00 0.00 77 1010.4